Starlink 5018

operational
NORAD ID: 53929 Int'l Des: 2022-119 Owner: SPXS Country: US Constellation: starlink
LEOCIRCULAR

关于 Starlink 5018

正在加载描述...

实时位置

正在加载3D地球...

即将过境

高度历史

Altitude vs Time

uPlot chart will show altitude changes over time

两行轨道根数

1 53929U 22119AV 25354.29614003 .00000386 00000-0 42352-4 0 9994
2 53929 53.2180 310.9047 0001549 94.5141 265.6029 15.08847017179835
Epoch: Dec 20, 2025 • Age: 16 hours

当前状态

高度 544.6 km
速度 7.60 km/s
星下点 50.63°N, 18.99°W
发射日期 Sep 24, 2022
运行时间 3.2 years
类型 internet

技术详情

分类 Payload
质量 305.00 kg
干质量 290.00 kg
总质量 305.00 kg
长度 0.20 m
直径 2.80 m
跨度 9.00 m
形状 Box + pan
制造商 SPXS
平台类型 Starlink
阶段状态 In Orbit
所有者/国家 SPXS/US

大型星座

Loading constellations...